Location: Doverdale
(52.2833°N, 2.2000°W)
Time: 02:24:42
(UTC+00:00)

Cosmos 1980 Rocket - Pass Details

Date: 05 March 2021
Orbit: 828 x 851 km, 71.0° (Epoch: 15 April)

Event Time Altitude Azimuth Distance (km) Brightness Sun altitude
Rises 20:08:18 0° 275° (W) 3,410 6.8 -20.8°
Reaches altitude 10° 20:11:42 10° 295° (WNW) 2,481 5.8 -21.3°
Maximum altitude 20:15:19 17° 335° (NNW) 2,038 4.7 -21.8°
Drops below altitude 10° 20:18:57 10° 14° (NNE) 2,490 4.7 -22.4°
Sets 20:22:22 0° 35° (NE) 3,429 5.2 -22.8°
